Погода в Алис-Спрингс

Австралия     23°43′24″S   133°53′01″E
темп.,
°C
ветер,
м/с
пор.,
м/с
влажн.,
%
обл.,
%
осадки,
мм/ч
давл.,
гПа
погр.,
м
20 сентября, пн
пн2000:30+20вюв464191 0.0 102079
03:30+19в33428 0.0 101932
06:30+19ююв3341100 0.0 102171
09:30+22всв783470 0.1 1022388
12:30+24ююв6535100 0.1 10221099
15:30+25ююв8830100 0.1 10211766
18:30+22ююв10122461 0.0 10231049
21:30+18юв814405 0.0 1026567
21 сентября, вт
вт2100:30+16юв915392 0.0 1026646
03:30+13юв916285 0.0 1027618
06:30+10юв915372 0.0 1029541
09:30+14юв11133556 0.0 1030991
12:30+18юв11122011 0.0 10281301
15:30+20юв11121750 0.0 10251510
18:30+16юв912235 0.0 1026760
21:30+12юв8153219 0.0 1029569
22 сентября, ср
ср2200:30+10юв7143531 0.0 1029464
03:30+8вюв6133736 0.0 1028320
06:30+7вюв51340100 0.0 1029299
09:30+13вюв10132830 0.0 10291072
12:30+18вюв910170 0.0 10251460
15:30+21вюв99140 0.0 10221693
18:30+17вюв710170 0.0 1023202
21:30+13юв49230 0.0 1025143
23 сентября, чт
чт2300:30+11вюв44260 0.0 102549
03:30+9вюв410302 0.0 1024161
06:30+8всв223587 0.0 102510
09:30+16вюв68240 0.0 1025857
12:30+21в55165 0.0 10211500
15:30+24вюв441313 0.0 10181989
18:30+20юв451822 0.0 101944
21:30+16вюв452486 0.0 102152
24 сентября, пт
пт2400:30+15в3326100 0.0 102016
03:30+13вюв1131100 0.0 101910
06:30+13всв2231100 0.0 101910
09:30+21в23184 0.0 1020601
12:30+25ю22130 0.0 10172046
15:30+26ю32113 0.0 10142535
18:30+23ююв44140 0.0 101533
21:30+19юв34191 0.0 101844